Liberty, KS

4:45 PM CST on February 12, 2016 (GMT -0600)
Coffeyville Municipal

Weather History for KCFV - January, 2013

Change the Weather History Date:

Sunday, January 20, 2013

  Actual Average Record
Temperature  
Mean Temperature 40 °F -  
Max Temperature 54 °F 43 °F 68 °F (2005)
Min Temperature 27 °F 22 °F 9 °F (2001)
Degree Days  
Heating Degree Days 24    
Moisture  
Dew Point 23 °F    
Average Humidity 56    
Maximum Humidity 82    
Minimum Humidity 33    
Precipitation  
Precipitation 0.00 in - - ()
Sea Level Pressure  
Sea Level Pressure 30.27 in    
Wind  
Wind Speed 7 mph (NNE)    
Max Wind Speed 17 mph    
Max Gust Speed 22 mph    
Visibility 10 miles    
Events      
Averages and records for this station are not official NWS values.
T = Trace of Precipitation, MM = Missing Value Source: NWS Daily Summary

Daily Weather History Graph

Daily Weather History Graph

Search for Another Location

Airport or City:

Trip Planner

Search our weather history database for the weather conditions in past years. The results will help you decide how hot, cold, wet, or windy it might be!

Date:

Astronomy

Jan. 20, 2013 Rise Set
Actual Time 7:32 AM CST 5:34 PM CST
Civil Twilight 7:04 AM CST 6:02 PM CST
Nautical Twilight 6:32 AM CST 6:34 PM CST
Astronomical Twilight 6:01 AM CST 7:05 PM CST
Moon 12:35 PM CST (1/20) 2:06 AM CST (1/20)
Length of Visible Light 10h 58m
Length of Day
10h 01m
Waxing Gibbous, 66% of the Moon is Illuminated
Jan 20
Waxing Gibbous
Jan 26
Full
Feb 3
Last Quarter
Feb 10
New
Feb 17
First Quarter

Hourly Weather History & Observations

Time (CST) Temp. Windchill Dew Point Humidity Pressure Visibility Wind Dir Wind Speed Gust Speed Precip Events Conditions
12:52 AM 33.1 °F - 26.1 °F 75% 30.24 in 10.0 mi Calm Calm - N/A   Clear
1:52 AM 30.9 °F 24.3 °F 24.1 °F 76% 30.25 in 10.0 mi NNE 6.9 mph - N/A   Clear
2:52 AM 30.0 °F 24.1 °F 24.1 °F 79% 30.27 in 10.0 mi North 5.8 mph - N/A   Clear
3:52 AM 35.1 °F 28.6 °F 27.0 °F 72% 30.27 in 10.0 mi NNE 8.1 mph - N/A   Clear
4:52 AM 30.9 °F 25.2 °F 25.0 °F 79% 30.27 in 10.0 mi NNE 5.8 mph - N/A   Clear
5:52 AM 27.0 °F 23.0 °F 21.9 °F 81% 30.30 in 10.0 mi North 3.5 mph - N/A   Clear
6:52 AM 30.9 °F 25.2 °F 25.0 °F 79% 30.28 in 10.0 mi NE 5.8 mph - N/A   Clear
7:52 AM 30.0 °F 25.2 °F 25.0 °F 82% 30.29 in 10.0 mi NNE 4.6 mph - N/A   Clear
8:52 AM 36.0 °F 32.1 °F 28.9 °F 76% 30.31 in 10.0 mi NNE 4.6 mph - N/A   Clear
9:52 AM 39.9 °F 34.5 °F 28.9 °F 65% 30.32 in 10.0 mi ENE 8.1 mph - N/A   Clear
10:52 AM 45.0 °F 39.7 °F 23.0 °F 42% 30.30 in 10.0 mi East 10.4 mph - N/A   Clear
11:52 AM 48.9 °F - 21.9 °F 35% 30.25 in 10.0 mi East 6.9 mph - N/A   Clear
12:52 PM 51.1 °F - 25.0 °F 36% 30.21 in 10.0 mi ENE 8.1 mph - N/A   Clear
1:52 PM 53.1 °F - 25.0 °F 34% 30.20 in 10.0 mi Variable 6.9 mph - N/A   Clear
2:52 PM 54.0 °F - 25.0 °F 33% 30.19 in 10.0 mi NE 5.8 mph - N/A   Clear
3:52 PM 53.1 °F - 25.0 °F 34% 30.19 in 10.0 mi NNE 10.4 mph - N/A   Clear
4:52 PM 50.0 °F - 21.9 °F 33% 30.21 in 10.0 mi NNE 13.8 mph - N/A   Clear
5:52 PM 43.0 °F 36.8 °F 21.0 °F 42% 30.23 in 10.0 mi NNE 11.5 mph - N/A   Clear
6:52 PM 39.9 °F 32.9 °F 19.0 °F 43% 30.26 in 10.0 mi NNE 11.5 mph - N/A   Clear
7:52 PM 37.0 °F 29.3 °F 19.0 °F 48% 30.30 in 10.0 mi North 11.5 mph - N/A   Clear
8:52 PM 33.1 °F 22.2 °F 16.0 °F 50% 30.33 in 10.0 mi North 17.3 mph 21.9 mph N/A   Clear
9:52 PM 30.9 °F 20.2 °F 14.0 °F 50% 30.36 in 10.0 mi NNE 15.0 mph - N/A   Clear
10:52 PM 30.0 °F 21.7 °F 14.0 °F 51% 30.36 in 10.0 mi NNE 9.2 mph - N/A   Clear
11:52 PM 30.0 °F 21.1 °F 15.1 °F 54% 30.37 in 10.0 mi North 10.4 mph - N/A   Clear